User: anonymous   Login
Location: Unspecified
(0.0000°N, 0.0000°E)
Time: 00:57:45
(UTC+01:00)
Language:

Cosmos 1536 - Orbit

View from above orbital plane
View from above orbital plane
View from above satellite
View from above satellite

Ground track
Ground track

The orbit data is extracted from the following two-line orbital elements,

1 14699U 84013A   16343.43734833  .00000823  00000-0  56074-4 0  9996
2 14699  82.5245 154.1870 0012627 351.7904   8.3114 15.04919895784401
Epoch (UTC): 08 December 2016 10:29:46
Eccentricity: 0.0012627
inclination: 82.5245°
perigee height: 543 km
apogee height: 560 km
right ascension of ascending node: 154.1870°
argument of perigee: 351.7904°
revolutions per day: 15.04919895
mean anomaly at epoch: 8.3114°
orbit number at epoch: 78440

The dashed part of the orbit path shows where the satellite is in the earth's shadow,  

DLR